RH
34 38 40 33 29 25 22 17 9 4 3 3 4 4 4 2 1 2 2 4 5 5 5 5 6 5 5 5 4 4 4 5 5 6 6 5 5 5 5 5 5 6 5 5 5 4 4 4 4 4 5 5 6 6 6 7 6 7 8 7 7 7 8 8 9 10 10 11 11 10 9 8 7 7 7 6 6 6 6 6 6 7 8 10 12 14 14 15
39 42 41 36 30 26 25 19 11 5 3 3 4 4 3 2 2 2 3 4 6 6 6 6 6 5 5 5 4 4 4 6 6 6 5 5 5 5 5 5 6 5 6 6 5 5 4 4 4 4 5 5 6 6 7 7 7 7 7 7 7 7 8 8 9 11 11 11 10 9 9 8 7 7 7 6 6 5 5 6 8 9 11 13 16 18 19 20
40 38 34 34 30 26 26 23 15 6 2 4 4 3 2 2 3 2 3 4 6 6 6 6 5 5 5 5 5 5 6 7 6 5 5 5 5 6 6 6 6 6 6 6 5 5 5 5 5 5 5 6 6 6 7 7 7 7 7 7 8 8 9 10 11 12 13 10 9 9 8 8 7 7 7 6 6 6 6 8 10 13 16 17 19 21 22 23
38 33 24 27 28 24 25 23 14 4 3 4 2 2 2 2 2 3 5 5 6 6 5 5 5 5 5 5 5 5 6 6 6 5 6 6 6 6 6 6 6 6 6 6 6 6 5 5 5 6 6 6 7 7 7 7 7 8 8 8 8 9 11 12 12 13 13 10 9 9 9 8 7 7 6 6 6 7 8 10 13 16 19 21 22 24 25 26
40 33 22 24 26 21 20 16 7 2 4 3 2 2 2 2 3 4 6 6 6 6 6 5 6 7 7 7 7 8 7 6 6 6 6 6 6 6 6 7 7 6 7 6 6 6 5 5 6 6 6 6 7 8 8 7 8 9 9 9 9 10 13 14 13 14 13 12 11 10 9 8 7 7 7 7 7 9 10 12 15 18 20 22 23 25 27 28
44 31 20 20 21 17 12 7 3 4 4 3 2 2 2 3 4 5 7 7 7 7 7 6 6 6 7 7 8 9 8 6 7 7 7 7 6 7 7 7 7 6 7 6 6 6 6 6 6 7 7 7 7 8 8 8 8 9 9 10 10 11 13 13 14 15 14 14 13 10 9 8 8 8 8 8 9 11 12 14 16 18 20 21 23 26 28 28
36 25 18 17 16 11 6 4 4 4 4 3 2 2 3 4 5 7 7 6 6 6 6 6 6 6 5 6 6 6 6 6 7 7 7 7 7 7 7 7 7 6 7 7 6 6 6 6 7 7 7 8 8 8 9 9 9 10 9 10 11 12 13 13 14 17 16 16 14 10 9 8 9 9 9 10 10 12 14 15 16 18 20 22 24 26 28 29
30 23 17 15 12 6 4 5 4 4 4 2 2 2 3 4 6 7 7 7 6 5 5 5 6 6 5 6 7 7 6 6 7 7 7 7 7 7 7 8 7 7 7 7 7 6 7 7 7 7 8 9 9 10 9 10 10 10 10 10 11 13 14 14 15 17 17 16 13 10 10 9 10 10 10 11 12 14 15 16 18 20 21 23 25 26 28 29
33 23 15 14 9 4 5 6 5 4 3 2 2 3 3 4 6 7 7 6 6 5 5 5 6 6 6 6 7 7 6 7 7 7 7 7 8 7 8 8 7 7 7 7 7 7 7 7 8 8 9 10 10 11 10 11 11 10 11 11 12 14 17 17 17 17 17 15 13 13 11 10 11 11 12 12 13 16 17 18 20 22 23 24 26 27 29 30
31 18 14 11 6 6 7 6 5 4 2 3 2 3 4 5 6 7 7 6 6 5 5 6 6 6 7 6 6 7 7 7 7 7 7 7 8 7 8 7 7 7 7 8 8 7 8 8 9 9 10 12 12 12 12 12 12 12 14 13 13 15 17 18 18 16 16 16 15 13 11 11 12 12 12 12 15 17 18 20 21 23 24 25 27 28 30 31
27 14 11 7 5 7 7 6 6 4 2 3 3 5 6 5 6 7 7 7 5 5 6 6 6 5 7 7 7 7 7 7 7 7 7 7 8 8 8 7 7 7 7 8 8 8 8 9 9 11 11 13 14 13 13 13 13 14 17 16 14 14 16 19 18 16 16 16 15 13 12 13 13 13 13 13 15 17 19 21 22 23 24 26 28 30 31 32
22 13 9 4 5 5 5 6 4 3 3 4 6 7 7 6 7 8 7 7 6 5 6 6 6 6 7 8 7 6 7 7 7 7 8 8 8 8 7 7 7 7 8 8 8 8 9 9 10 11 12 13 14 14 13 14 14 16 18 18 16 15 16 18 17 16 17 17 16 13 13 14 14 15 15 14 16 18 20 21 22 24 25 26 28 30 32 33
19 11 7 3 4 4 3 5 3 3 4 6 9 9 8 8 7 8 7 6 6 5 6 6 6 6 7 8 7 7 7 7 7 8 8 8 8 8 7 8 8 8 8 9 9 9 9 10 11 12 13 14 15 15 14 15 15 17 18 19 17 16 17 16 17 19 20 19 17 16 15 14 15 17 16 16 17 18 20 21 23 24 25 27 29 31 32 33
25 7 4 4 3 3 3 3 3 3 5 8 10 9 9 8 7 7 6 5 5 5 6 6 6 7 7 7 7 7 8 7 7 8 8 8 7 8 8 8 8 9 9 9 9 10 10 11 12 14 14 14 16 16 15 16 16 17 19 19 16 16 16 16 18 19 19 19 17 16 17 15 15 18 17 17 18 19 21 21 23 24 26 28 29 31 33 34
36 11 2 4 2 3 3 3 4 3 6 10 9 9 8 7 7 6 6 5 5 6 6 6 6 7 7 7 7 7 8 8 8 8 8 8 8 8 9 9 9 9 10 10 10 10 11 12 14 14 15 16 16 16 17 17 17 17 19 19 16 16 15 16 19 17 16 18 17 18 19 15 15 18 18 18 19 20 22 22 24 25 26 29 30 32 33 34
36 18 3 4 4 4 4 3 4 4 7 9 9 10 8 7 7 6 6 6 6 7 7 7 7 8 8 7 8 8 8 8 8 8 8 8 8 9 9 10 10 10 10 10 11 12 12 14 15 15 16 17 17 17 18 18 18 19 19 20 19 17 16 16 17 17 16 17 17 19 19 15 16 19 18 20 21 22 22 23 24 26 27 29 31 32 33 35
19 13 4 6 8 7 6 5 4 5 8 9 9 9 8 7 7 6 7 7 7 7 7 8 8 8 8 7 8 8 8 8 8 8 9 9 9 10 10 10 10 10 10 10 11 13 13 14 15 16 17 18 18 18 19 20 20 19 20 21 21 19 19 18 16 16 17 17 17 18 17 16 18 20 20 22 23 23 23 24 25 26 28 30 31 33 35 36
6 6 5 8 10 9 8 6 5 7 9 9 9 9 8 7 7 7 8 8 9 8 9 10 10 9 8 8 9 8 9 8 9 9 9 10 10 10 10 11 11 10 11 11 12 13 13 14 15 16 16 17 18 18 20 22 22 21 21 22 23 21 21 20 18 16 17 17 18 18 18 17 19 21 22 23 24 23 23 25 26 27 29 30 32 34 36 37
4 5 6 9 11 10 9 8 8 8 9 10 9 9 8 7 7 8 8 9 10 10 10 11 11 9 8 9 8 8 9 9 9 9 10 11 11 11 11 11 11 11 12 12 13 13 14 16 16 15 16 17 19 20 21 23 23 24 24 25 26 25 23 22 20 17 18 19 18 20 20 19 22 23 23 24 24 24 24 25 26 28 30 31 33 35 37 38
6 6 6 7 8 8 9 10 10 10 10 10 10 9 8 8 8 7 8 8 8 9 8 8 8 8 8 8 8 8 9 9 9 10 10 11 11 11 12 12 12 12 13 13 13 14 15 16 16 16 19 20 21 22 23 24 25 25 26 27 28 27 24 23 21 18 20 20 19 22 22 21 23 24 23 25 24 23 25 26 27 29 31 32 34 36 38 39
8 6 4 5 5 8 10 10 11 10 10 10 10 9 8 8 7 7 7 7 7 8 7 7 8 8 8 8 8 9 9 10 10 10 11 11 11 12 12 13 13 13 14 15 15 15 16 16 17 20 21 21 22 24 24 25 26 26 28 29 29 28 25 22 22 20 21 22 21 22 23 23 24 24 24 25 24 24 26 27 29 30 32 34 35 37 39 39
8 5 4 6 6 9 11 10 11 10 10 10 9 8 8 7 7 7 8 7 7 7 6 7 7 8 8 8 9 9 9 10 10 11 11 11 12 12 13 14 14 15 16 16 16 17 17 16 19 21 22 23 24 25 26 27 27 27 29 30 31 30 27 23 23 22 22 24 23 23 25 24 23 23 24 25 24 25 27 29 31 33 34 36 37 38 40 40
6 4 6 9 10 11 12 11 11 11 10 10 9 9 8 7 7 8 8 7 7 7 7 7 7 8 8 8 9 9 10 10 11 11 11 12 13 13 14 14 15 16 17 18 17 17 17 18 20 21 23 24 25 25 26 27 28 28 29 30 31 31 30 28 24 22 23 25 25 26 27 24 23 24 25 26 26 26 29 31 33 34 36 37 37 38 40 39
4 5 8 11 13 12 12 12 11 11 10 9 9 9 8 7 8 8 8 7 7 7 7 7 8 8 8 9 9 10 12 11 11 11 11 12 13 13 15 15 16 17 18 19 18 18 19 19 21 22 24 25 25 26 26 26 28 28 29 31 32 31 31 30 26 23 24 26 27 29 30 25 23 26 26 26 27 27 31 34 35 36 37 38 38 38 39 39
4 7 10 11 13 12 12 12 11 11 9 9 9 9 9 8 9 9 9 8 7 8 8 7 8 8 9 9 9 11 13 10 10 11 11 12 13 14 15 16 17 18 19 20 19 20 21 21 22 22 24 25 26 28 26 26 27 28 30 31 32 33 31 29 27 26 26 27 28 32 42 37 25 26 28 27 28 29 33 36 37 38 38 38 38 39 40 39
6 8 10 10 12 12 12 12 11 10 9 9 9 9 9 9 10 9 10 11 8 7 8 8 8 9 9 9 9 12 13 11 10 11 11 12 13 15 15 16 17 18 20 20 21 22 22 23 23 23 25 26 28 29 28 27 27 29 31 32 34 34 32 28 26 27 28 29 29 33 46 44 29 27 29 28 29 30 34 38 39 40 40 39 39 39 40 41
7 8 9 10 11 11 12 13 11 10 10 10 9 9 9 9 10 9 11 15 12 9 8 8 9 9 9 10 9 10 11 10 10 11 12 13 14 15 16 17 18 19 21 21 22 24 24 25 24 24 25 26 29 31 30 29 28 30 32 34 36 33 31 29 26 28 30 30 31 33 40 41 33 30 30 29 30 32 35 39 41 43 43 42 41 41 41 41
8 8 8 10 10 11 12 12 11 11 10 10 10 10 9 9 9 9 12 15 12 10 9 8 9 8 8 9 10 9 10 10 10 11 12 13 15 15 16 18 18 19 21 22 23 25 25 26 25 25 26 28 30 32 34 31 30 32 32 36 38 34 33 30 27 30 32 33 35 33 36 42 39 32 30 32 31 33 37 40 43 45 45 45 44 43 41 41
8 8 8 9 10 10 11 11 11 11 10 10 10 10 10 9 8 11 15 15 13 11 10 11 10 9 9 9 9 10 10 10 10 11 12 14 15 16 17 18 18 20 21 22 24 25 26 26 26 26 27 30 31 34 37 33 31 33 34 37 38 35 33 31 31 33 34 38 38 32 34 44 46 34 30 35 33 34 39 42 45 47 48 48 47 46 44 43
8 8 8 8 9 9 9 10 10 11 10 10 10 10 10 9 8 15 20 16 13 11 10 11 9 8 9 8 9 10 10 11 11 11 13 14 15 16 17 19 19 20 21 22 23 25 26 26 26 27 28 31 32 36 38 34 33 33 35 39 37 35 35 34 33 33 41 47 40 32 33 44 52 40 31 37 36 35 41 45 47 49 51 52 51 49 47 46
8 7 8 8 8 9 8 8 9 9 10 9 9 9 9 8 10 17 21 16 13 12 10 10 9 8 8 8 9 10 10 11 11 12 13 14 16 17 18 19 19 20 21 22 23 24 27 27 27 28 29 31 34 37 38 36 35 34 37 40 37 37 37 34 34 37 50 56 41 34 37 44 53 43 34 38 37 37 44 47 49 51 53 55 55 54 51 49
7 6 7 7 7 8 8 8 8 8 8 8 8 8 8 10 12 13 13 12 12 11 10 10 8 7 8 8 9 10 11 12 12 12 13 15 17 17 18 19 19 21 22 22 22 23 25 26 27 29 30 33 35 37 38 38 36 36 38 39 42 48 49 50 54 52 52 51 40 39 44 46 47 39 35 39 39 42 47 49 51 53 55 57 58 58 56 54
7 5 6 7 6 7 7 7 8 7 8 7 8 8 9 12 13 11 10 9 10 11 9 9 8 7 8 8 9 10 11 12 12 13 14 15 17 17 18 19 20 22 22 24 24 24 25 27 28 29 31 34 37 38 40 40 39 38 38 40 46 56 63 69 73 67 59 50 42 44 49 47 41 36 37 40 42 46 49 51 54 54 56 59 60 61 61 58
5 4 5 6 6 7 7 7 7 7 8 9 9 10 11 13 11 11 12 10 10 10 9 8 8 8 8 8 9 11 11 12 13 13 14 15 17 18 19 20 21 23 23 25 26 26 30 30 29 30 32 35 38 39 41 43 41 38 39 42 44 48 55 64 67 63 59 53 46 45 48 46 40 36 38 41 45 49 51 53 55 56 57 60 61 63 63 62
4 4 5 6 6 7 6 6 7 7 9 9 9 10 11 11 10 10 11 11 10 9 8 8 8 8 8 8 9 10 11 13 13 13 14 15 17 18 19 21 22 23 24 25 26 28 30 30 30 31 33 36 38 39 41 42 40 39 40 42 44 46 47 51 54 48 48 59 59 49 43 40 37 36 37 42 47 50 53 55 56 58 59 61 64 64 64 64
4 5 5 6 6 6 6 6 6 7 8 8 8 8 8 8 10 10 10 10 10 8 8 9 8 8 9 9 9 10 12 13 13 13 14 15 17 18 19 21 22 24 25 26 27 29 29 28 29 31 33 36 38 39 41 42 41 41 41 42 44 47 46 48 51 46 53 71 66 46 40 39 37 37 37 43 48 50 53 56 56 59 60 63 66 66 66 66
5 5 6 6 6 6 6 7 6 7 7 7 7 7 7 8 9 10 10 10 9 9 8 8 9 10 9 9 10 10 12 13 13 14 15 16 18 19 19 21 22 24 26 26 27 30 31 28 28 31 33 35 37 39 40 41 42 43 43 44 45 46 48 50 54 59 72 84 68 46 44 46 44 42 38 41 48 49 52 55 57 60 62 65 68 69 69 68
5 6 6 6 5 6 8 8 8 8 8 7 7 7 8 9 9 9 10 9 9 9 9 8 10 11 10 10 10 11 12 13 13 14 15 16 17 19 19 20 22 24 25 27 27 29 32 30 28 30 33 36 38 39 39 41 43 44 44 45 45 48 51 50 54 65 78 87 76 55 49 47 42 39 38 41 46 47 51 54 57 61 63 67 70 70 71 71
6 6 5 5 6 7 9 9 9 8 8 8 7 8 8 8 9 9 9 9 9 9 10 9 10 10 10 9 10 11 12 13 14 15 16 16 17 18 20 20 23 24 25 27 28 29 32 33 30 29 32 36 37 37 40 42 43 44 45 46 45 47 51 51 54 60 66 79 84 73 61 46 32 33 38 41 44 46 50 54 57 61 64 67 71 73 74 74
6 5 5 6 6 7 9 9 8 8 8 7 7 8 8 8 8 8 9 9 9 10 10 10 9 9 9 10 10 11 13 14 14 15 16 17 17 18 20 21 23 25 26 27 28 29 32 34 32 29 31 35 36 38 41 41 43 45 45 47 47 47 50 52 55 54 55 71 85 87 77 45 22 31 39 39 42 45 49 54 57 60 63 67 72 74 76 76
5 5 6 7 8 8 8 8 8 8 7 7 7 7 7 8 8 8 9 9 10 10 10 10 10 9 9 10 11 12 14 14 15 16 16 17 18 19 20 22 24 26 26 27 28 29 31 34 33 30 30 33 34 37 39 39 41 42 44 46 47 48 50 56 65 60 54 61 67 76 79 44 18 30 38 36 42 44 48 54 54 55 59 64 70 73 76 77
6 7 8 8 8 7 7 7 7 7 7 7 7 7 8 8 8 9 9 10 10 11 11 11 10 10 10 11 12 13 15 15 15 16 17 17 18 20 20 22 25 26 26 27 27 29 31 34 33 30 30 32 34 35 37 38 39 41 44 46 48 51 50 55 67 63 56 61 57 65 75 44 16 29 36 34 41 43 47 52 50 50 54 59 65 69 72 75
8 9 8 8 7 6 6 6 6 7 7 7 8 8 9 9 9 9 10 10 11 11 11 11 11 10 10 11 12 13 14 16 16 16 17 18 19 20 21 23 25 25 26 27 27 29 31 33 34 31 28 30 32 33 35 36 39 42 44 46 49 53 53 54 61 58 58 62 57 68 79 44 15 27 33 32 40 42 45 49 49 49 50 54 59 63 67 69
8 8 7 6 6 6 6 6 7 8 8 9 9 9 10 10 10 10 10 11 12 12 12 12 11 11 11 11 12 13 15 16 17 17 18 18 19 20 22 24 25 26 27 27 28 30 31 33 35 35 37 38 37 37 37 38 43 45 46 47 48 51 55 56 57 58 60 57 54 71 77 41 16 25 29 32 41 40 40 47 50 50 48 49 55 58 61 63
7 6 6 6 5 6 7 7 7 8 8 9 9 9 10 10 10 11 11 12 12 13 13 12 12 12 12 12 13 14 15 17 18 18 18 19 20 21 22 24 25 26 27 28 29 30 31 32 33 37 44 50 46 42 40 39 43 45 43 44 46 48 54 56 58 63 62 55 55 62 57 33 19 22 26 33 40 41 42 47 50 50 48 49 53 56 56 58
6 6 6 6 6 6 6 7 7 8 9 9 9 10 10 10 11 12 12 13 13 13 14 13 13 13 13 13 13 14 16 17 18 19 19 20 21 22 23 24 25 26 27 28 29 31 32 31 32 34 37 39 38 35 36 38 41 40 39 41 44 46 50 55 62 61 53 53 56 46 38 36 28 21 26 34 41 46 48 49 52 52 50 52 54 54 54 57
5 5 6 6 6 6 7 7 8 8 8 9 9 10 10 11 12 12 13 14 13 14 15 14 14 13 13 13 14 15 16 17 19 19 19 21 21 22 23 24 25 25 26 27 28 31 33 31 32 32 30 30 32 32 35 38 38 36 37 40 41 44 49 54 54 47 44 56 55 34 31 43 34 23 30 36 43 53 54 53 56 55 52 55 56 54 54 58
5 5 6 6 6 7 7 7 7 7 8 9 9 10 11 12 13 13 14 15 14 15 15 14 14 14 14 14 14 15 16 17 19 19 20 21 22 23 23 23 24 24 24 27 29 30 33 32 31 31 29 29 32 32 33 36 37 36 36 37 38 40 45 46 41 38 46 56 48 32 36 45 34 26 34 41 51 60 57 54 57 55 54 59 59 55 56 59
5 5 6 6 6 6 6 6 7 8 9 9 10 11 11 12 13 14 15 15 16 16 16 15 15 15 15 15 15 16 16 17 19 19 20 21 22 23 24 23 24 24 24 27 28 30 34 33 31 32 30 28 30 32 33 34 35 34 30 30 33 35 37 37 35 37 46 47 37 35 43 42 32 31 40 50 59 63 58 57 60 59 59 64 64 59 58 62
4 5 5 5 5 6 6 7 8 8 9 11 11 12 12 13 14 15 15 16 16 16 17 17 16 16 15 15 15 16 17 18 19 19 20 22 22 22 23 23 23 24 24 26 28 30 33 33 32 34 32 28 28 30 32 34 36 33 26 25 30 33 34 35 33 35 41 41 36 41 46 41 35 43 55 61 64 64 61 62 64 64 67 72 71 65 64 67
4 4 5 5 5 6 7 8 9 10 11 12 13 13 13 13 14 15 16 17 17 17 17 17 17 17 16 16 16 16 17 18 19 20 21 22 22 22 22 23 23 24 24 26 28 29 32 33 32 35 37 31 27 31 33 34 35 30 24 25 30 33 32 32 32 33 37 39 40 44 46 42 43 54 61 62 64 65 61 57 57 58 66 76 76 74 75 76
4 5 5 6 6 7 9 10 11 12 12 13 14 14 14 14 15 15 16 16 17 18 19 18 18 18 16 16 17 17 18 18 19 20 21 21 21 22 22 22 23 24 24 25 28 29 31 33 33 38 41 32 28 33 34 34 36 31 25 27 29 30 30 30 32 34 37 40 43 43 43 46 52 58 60 61 64 66 63 59 56 56 63 71 73 76 81 83
Wind_Speed
17 11 5 4 4 4 6 5 6 7 8 9 11 12 13 14 16 16 16 16 15 15 15 16 15 15 13 11 10 12 15 17 17 14 10 10 13 14 14 14 13 12 10 10 9 9 9 8 7 6 6 6 5 6 5 5 6 5 4 2 3 5 4 4 5 5 7 11 12 14 18 20 20 20 19 21 22 21 22 22 23 25 27 28 27 27 29 30
17 10 4 1 1 1 3 4 5 6 8 11 12 12 13 14 15 15 15 15 15 15 15 16 16 15 14 12 12 13 17 19 13 8 8 12 14 14 14 13 12 12 11 11 10 10 10 9 8 7 6 5 4 5 4 4 4 4 4 4 5 6 5 5 5 6 9 11 13 15 18 20 20 20 20 22 23 23 23 23 24 26 27 29 29 29 30 32
18 9 5 4 3 2 2 2 3 4 8 11 12 12 13 13 14 13 13 13 15 15 15 16 16 16 15 14 14 14 17 17 10 8 13 15 14 13 13 12 12 12 12 11 10 10 10 9 9 8 7 6 6 6 5 4 4 5 5 6 7 7 6 5 4 7 11 12 14 15 16 19 19 19 21 22 23 23 24 24 24 25 26 29 30 30 31 32
19 7 5 7 5 2 3 2 2 4 9 12 12 13 13 13 13 13 13 13 14 16 16 16 16 15 15 15 15 15 17 15 10 13 16 13 12 12 12 12 12 11 11 11 9 8 8 10 10 9 8 8 8 6 6 6 6 6 6 7 8 8 7 5 5 8 12 13 15 15 17 18 17 18 19 20 22 22 23 23 23 24 26 28 29 30 31 32
21 9 4 6 4 3 4 4 5 7 11 12 12 12 12 12 12 13 13 13 14 14 15 14 13 11 10 10 11 12 12 13 14 15 14 12 12 12 13 12 11 11 11 11 10 8 9 10 10 10 9 9 9 6 6 8 8 8 8 8 8 9 7 5 6 10 14 14 16 16 17 17 15 16 18 19 21 22 23 23 23 24 26 28 29 30 30 32
21 11 5 4 3 4 5 6 8 10 12 13 12 12 12 12 12 13 14 14 14 14 13 12 11 11 12 12 12 10 10 12 15 14 13 12 13 13 13 12 10 11 12 11 10 10 10 10 10 10 10 10 10 8 9 9 9 9 9 9 10 10 8 7 9 12 14 15 16 17 17 16 13 15 17 20 22 23 24 25 26 27 28 29 30 31 31 33
18 11 5 3 3 4 6 8 10 12 13 13 12 12 12 11 12 13 14 15 16 16 15 14 13 12 13 16 16 13 12 14 14 13 12 13 14 13 13 12 11 12 12 12 11 10 10 10 10 10 10 11 10 9 10 9 9 9 9 11 12 12 10 10 11 13 14 14 16 16 17 16 13 14 17 20 22 23 25 27 28 29 29 30 31 32 33 35
14 10 5 3 3 5 8 10 12 13 13 12 12 12 11 11 12 14 14 15 16 15 15 14 14 12 12 16 15 10 10 14 13 11 12 14 15 15 15 13 12 12 12 11 10 10 10 9 9 10 11 12 10 9 10 9 8 10 11 13 14 14 13 12 12 15 16 15 15 16 18 16 13 15 17 21 23 24 26 28 29 29 30 31 32 33 34 36
11 7 4 3 4 7 10 12 13 13 12 12 12 11 10 10 12 14 14 14 15 14 13 13 14 14 13 13 13 9 10 13 12 10 12 14 15 16 15 12 10 10 10 10 10 9 10 9 9 11 11 12 10 8 10 9 8 11 13 14 15 14 14 14 13 16 17 17 17 18 18 15 13 15 18 21 23 24 27 28 28 29 30 31 32 34 35 38
9 5 4 4 4 8 11 13 13 12 11 12 11 10 9 10 12 13 13 13 14 13 13 13 13 14 13 12 11 9 11 13 12 12 13 15 15 15 13 11 10 9 9 10 10 9 10 10 10 12 11 12 10 8 11 10 9 12 12 13 14 14 15 14 14 16 17 17 18 19 19 15 13 16 19 21 23 24 26 27 27 29 30 31 33 34 36 38
8 4 4 4 6 9 11 13 13 12 11 12 11 10 10 11 13 13 13 13 12 12 11 10 10 14 16 13 6 6 11 12 12 13 14 15 14 13 12 11 10 9 9 10 10 9 11 10 11 13 12 12 9 7 12 13 12 13 10 11 13 13 14 13 15 16 16 17 18 20 21 16 13 16 20 22 23 24 25 26 27 29 30 32 33 35 37 39
7 5 5 5 7 9 12 13 13 12 12 12 12 11 11 12 13 13 13 12 11 10 10 9 11 15 16 9 3 7 11 11 12 13 13 14 12 12 12 12 10 9 9 11 11 10 11 10 11 13 13 12 10 7 12 14 13 12 9 10 11 13 13 13 14 15 14 17 19 22 22 15 12 16 20 22 23 24 25 26 28 29 31 32 34 35 37 39
6 6 6 6 8 10 12 14 13 13 12 13 12 12 12 12 12 12 13 12 12 11 11 12 14 16 15 9 7 10 11 10 12 13 12 12 11 11 12 12 11 10 10 11 12 11 10 9 10 12 12 12 11 9 12 13 12 12 9 9 10 10 11 15 14 13 15 17 19 22 22 15 13 16 20 22 23 24 26 27 28 30 31 32 34 35 37 40
5 7 6 7 9 11 12 13 13 13 13 14 13 13 13 12 12 12 13 13 13 12 12 12 12 13 12 10 10 10 10 10 12 12 11 11 11 11 12 13 13 11 11 11 12 10 9 10 10 10 12 12 13 11 11 12 11 12 9 9 13 11 10 14 13 12 15 18 19 22 22 17 14 17 20 22 23 25 26 27 28 30 31 32 33 35 37 40
5 5 6 8 9 11 11 12 13 13 14 14 14 13 13 13 13 13 13 13 13 13 12 12 11 11 10 9 11 11 11 11 12 12 10 10 10 11 12 14 13 11 11 10 11 10 9 11 8 9 12 12 14 12 9 11 12 13 12 11 15 14 12 12 14 14 15 17 19 20 21 19 16 17 19 22 23 24 26 27 29 29 30 32 33 35 38 41
6 3 6 8 8 10 10 11 13 14 13 14 14 12 12 14 14 14 13 14 14 14 13 11 11 10 7 9 12 12 13 12 11 11 10 10 10 12 13 13 12 10 10 10 10 10 10 10 7 9 12 13 16 14 9 12 16 17 18 17 17 17 14 12 13 16 16 17 18 17 21 21 18 18 20 21 23 24 26 27 28 29 30 32 33 36 38 41
6 6 7 8 9 10 11 12 13 13 13 13 13 11 12 14 14 15 14 14 14 14 13 11 10 10 8 10 12 12 12 11 10 10 10 10 11 13 13 12 13 12 11 11 10 10 9 8 8 10 12 13 15 15 11 13 19 20 21 22 20 19 18 16 14 15 17 19 19 17 20 20 18 19 20 20 22 24 26 27 28 29 30 31 33 36 38 41
8 9 9 10 11 11 12 13 13 13 12 13 13 12 12 13 14 14 14 14 14 13 12 10 9 9 10 11 11 11 11 11 11 11 10 10 11 12 12 12 13 13 13 12 11 10 9 8 9 8 10 14 16 19 18 16 19 21 21 23 23 21 19 20 17 15 19 22 20 17 17 18 18 18 19 20 22 25 26 27 28 29 30 31 33 35 38 41
9 11 11 12 11 12 12 12 12 12 12 13 13 12 12 13 14 14 13 12 11 10 10 10 8 9 10 10 10 11 11 10 11 11 10 11 10 11 12 11 12 13 13 13 11 11 11 9 10 11 14 19 19 21 20 18 19 19 20 22 24 24 21 20 17 15 21 25 20 17 17 18 18 18 18 19 22 24 26 27 28 29 30 31 33 36 38 40
11 11 12 12 10 10 11 12 12 12 13 13 12 11 12 13 11 11 11 10 10 11 11 11 9 9 9 9 9 10 10 9 10 11 10 10 10 10 12 12 12 13 13 13 12 12 13 11 13 15 18 19 19 19 18 19 20 19 21 22 23 26 25 20 12 12 21 25 22 19 20 20 19 18 16 19 22 23 25 28 29 28 29 31 33 35 38 40
11 11 12 11 10 10 11 12 13 13 13 12 11 11 11 11 9 9 10 11 12 11 11 10 8 8 8 8 8 8 8 9 10 11 10 10 11 11 12 12 12 13 13 13 12 13 13 12 15 17 17 17 17 17 18 19 19 20 22 24 24 25 28 21 9 12 19 23 23 21 23 23 20 16 16 18 21 23 25 27 28 28 29 31 33 35 37 39
11 11 12 11 11 12 12 13 13 13 13 12 11 11 10 10 10 10 9 10 11 9 8 8 7 7 7 7 6 5 7 10 9 10 11 11 11 11 11 12 11 12 13 14 12 12 13 13 16 17 16 17 17 17 18 18 19 20 22 25 26 27 29 21 12 15 18 22 25 22 26 26 17 14 17 19 21 22 25 27 27 28 29 31 33 35 37 39
12 12 11 12 13 13 13 13 13 13 14 13 12 11 11 10 10 10 8 8 8 8 7 6 6 6 6 5 5 4 6 9 8 9 11 10 11 11 11 12 11 11 14 14 12 12 13 13 13 15 16 17 18 18 17 16 18 20 23 27 29 30 28 22 19 18 14 21 24 24 31 24 12 16 19 18 21 22 24 27 27 28 29 31 33 35 37 40
12 12 12 12 13 13 13 12 11 13 13 13 13 12 11 10 9 8 7 7 7 7 6 6 6 5 5 4 5 4 4 6 7 9 10 10 11 11 11 12 12 11 14 15 12 13 14 12 11 14 16 17 18 19 18 18 19 20 23 27 29 31 28 24 24 21 17 19 18 25 31 17 12 22 21 17 20 22 24 27 28 28 30 32 34 35 37 40
12 12 12 12 12 12 12 11 11 12 12 12 13 11 10 9 7 6 5 5 5 5 4 4 4 4 3 2 4 4 2 4 8 8 9 11 12 12 12 13 13 12 15 17 14 14 15 13 12 12 16 18 19 21 20 20 22 21 23 26 28 31 29 24 22 21 21 18 17 24 21 11 20 27 19 18 20 21 24 27 29 29 31 33 34 35 37 39
12 12 11 11 11 10 10 11 11 11 12 12 11 10 9 6 4 4 3 3 4 4 3 3 2 0 0 1 3 4 2 3 7 8 10 12 12 13 13 13 14 13 15 17 15 15 16 14 12 11 15 18 19 22 21 20 22 22 23 26 27 30 28 22 18 19 19 17 20 21 10 13 30 29 19 19 20 21 26 28 30 30 31 33 34 35 37 38
12 12 11 10 10 9 10 10 11 11 12 11 10 8 6 4 3 3 2 2 5 5 4 4 4 3 2 1 1 4 3 4 8 9 10 12 12 13 13 13 15 12 14 17 15 15 17 15 13 11 14 18 20 22 23 21 20 21 24 26 28 28 23 16 15 16 17 19 20 16 9 14 26 28 21 18 19 23 27 29 31 31 32 33 34 35 37 38
13 12 11 9 8 8 9 9 10 11 11 10 9 7 4 1 1 3 2 1 3 6 6 6 5 5 4 3 2 3 4 5 8 9 10 11 11 12 12 13 14 12 12 16 16 16 17 17 13 11 14 18 20 23 24 21 19 21 24 27 30 27 18 13 13 14 17 17 14 11 9 9 20 26 19 16 23 25 28 31 31 32 33 33 34 35 37 38
13 12 10 8 7 7 7 7 9 10 10 10 8 6 3 3 4 4 2 1 3 6 6 5 5 6 7 5 4 3 4 6 7 8 9 10 11 11 11 13 14 13 12 16 17 15 17 17 12 11 14 17 19 22 25 22 19 22 22 27 30 21 15 10 9 14 14 11 9 10 8 5 16 23 15 18 27 27 30 33 31 33 34 34 35 36 38 39
13 12 10 8 7 6 6 7 8 9 10 9 8 7 5 6 5 2 2 3 4 6 6 6 5 5 7 7 5 4 5 6 7 8 8 9 10 11 11 12 14 13 12 16 18 15 17 16 12 12 14 17 20 21 24 21 19 21 23 30 28 15 12 8 7 13 9 6 6 8 9 6 9 17 18 24 29 27 32 34 33 34 34 35 37 37 38 40
13 11 10 8 6 5 6 6 8 9 9 9 9 8 7 7 6 3 2 4 5 7 9 10 9 7 7 7 6 5 5 6 6 7 8 9 10 10 11 11 14 14 12 17 18 16 17 15 13 15 15 18 21 21 23 21 20 20 21 30 26 12 9 6 6 7 2 4 8 7 12 10 9 15 24 27 28 28 33 35 35 36 36 37 38 38 40 41
13 11 9 7 6 5 5 6 7 8 9 9 9 9 8 6 7 8 7 5 4 6 8 9 10 9 8 8 8 7 6 6 7 7 8 9 8 9 10 11 15 13 12 17 18 16 17 14 14 15 15 19 21 22 22 19 20 19 19 27 23 8 7 3 4 3 3 7 8 9 18 15 16 23 26 24 27 29 32 35 36 37 38 39 39 39 41 42
13 12 10 8 6 5 5 6 7 8 8 8 8 8 8 5 5 9 10 8 5 5 6 8 9 10 9 9 9 7 7 7 7 7 7 8 8 9 10 12 15 13 12 16 16 16 16 13 14 15 14 18 22 22 21 20 20 17 17 24 17 4 5 4 4 4 5 10 14 19 21 15 18 27 25 23 27 30 32 36 37 38 40 41 41 42 42 43
13 12 11 9 7 5 6 6 7 8 7 7 7 7 9 8 7 8 9 10 10 10 9 9 10 11 11 10 9 8 8 7 7 7 8 8 9 9 11 12 14 13 14 15 14 16 13 10 13 14 13 18 22 22 21 22 20 15 17 19 13 5 2 2 4 3 7 18 26 23 13 11 21 27 24 25 30 32 34 37 38 41 42 43 44 44 43 44
13 13 11 9 8 7 7 7 7 8 8 8 8 9 11 10 9 10 10 10 12 12 12 11 11 11 11 11 11 10 9 8 8 8 8 8 9 9 10 12 13 14 15 14 13 14 13 12 14 14 14 18 22 21 21 21 16 14 17 16 13 11 4 6 8 10 12 16 19 14 12 22 31 26 24 29 33 35 36 38 41 42 44 45 45 45 45 45
12 12 11 9 8 7 7 7 8 9 9 8 10 12 13 11 10 10 10 11 11 11 11 11 11 11 12 12 12 12 10 9 9 9 8 9 8 8 10 12 12 14 14 14 13 11 12 16 15 12 14 18 21 21 20 18 14 14 16 15 15 14 8 7 9 11 9 6 8 12 20 36 35 22 24 32 35 38 39 41 44 44 45 46 45 46 46 45
12 11 10 9 8 8 7 7 7 8 9 10 11 12 12 12 12 12 13 13 13 12 11 11 10 10 10 10 10 11 10 9 9 8 8 9 7 7 10 11 12 14 15 15 14 12 14 18 15 11 14 19 21 21 18 15 13 13 14 14 16 13 7 7 6 5 3 2 8 13 21 35 29 18 28 36 36 41 42 43 45 45 46 47 46 47 46 46
10 10 10 9 8 8 7 6 6 7 8 10 11 11 12 12 13 13 14 14 13 12 12 12 11 10 11 11 11 11 10 9 9 9 9 9 8 9 11 10 12 14 15 15 15 15 16 16 14 13 16 20 21 19 17 14 12 13 13 13 13 9 5 7 5 4 3 1 6 13 20 28 25 20 30 37 38 43 44 44 45 45 46 47 48 48 47 47
10 10 9 9 8 8 8 7 6 7 8 10 10 10 11 11 12 12 13 14 13 13 13 13 13 13 12 12 12 11 11 11 10 10 9 8 8 10 11 10 12 13 15 16 15 16 16 12 12 16 20 21 20 17 16 15 13 14 14 14 12 9 8 9 6 5 4 1 5 10 15 23 26 25 30 38 42 45 45 45 45 45 46 48 49 49 48 47
9 9 9 8 8 8 8 8 8 9 10 11 10 11 12 12 13 13 13 14 14 13 13 13 14 14 14 13 13 12 12 12 11 10 10 9 9 11 9 9 12 13 14 16 16 17 15 11 14 20 22 21 20 17 15 14 13 14 15 14 13 10 11 12 11 11 7 4 2 2 9 27 31 25 30 41 44 45 46 46 45 45 47 48 48 49 48 47
9 9 8 8 8 8 8 9 10 10 11 11 11 12 13 14 14 14 14 14 14 13 14 14 13 14 14 13 13 13 12 12 12 11 10 10 9 9 9 11 13 13 14 15 16 16 15 14 19 23 23 22 20 16 13 12 11 14 16 15 14 13 12 9 7 10 9 9 6 2 9 31 36 28 35 46 44 45 46 45 46 47 47 48 48 48 48 47
8 8 8 7 7 7 8 9 10 10 11 11 12 13 13 14 15 14 14 14 14 14 15 15 14 15 15 14 14 13 13 13 13 11 10 10 10 10 11 12 13 13 14 15 15 16 16 17 19 23 25 21 16 13 11 11 14 16 18 19 18 16 15 9 5 10 10 13 13 5 9 28 39 36 40 46 43 45 46 44 47 47 47 48 47 47 47 47
7 7 7 7 7 7 8 9 9 10 11 11 12 13 13 14 15 14 14 13 14 14 14 15 15 15 15 15 14 14 13 13 13 12 11 10 11 12 12 13 13 14 15 15 15 16 16 15 18 25 28 20 13 11 11 13 17 20 21 22 21 19 19 15 15 18 15 17 16 6 8 26 43 42 42 44 43 45 44 44 47 47 47 48 46 47 47 46
7 8 8 8 8 8 8 9 9 10 11 11 12 13 14 14 14 14 13 13 13 13 13 14 14 15 15 14 14 14 13 12 11 11 11 11 12 12 13 13 13 14 15 16 16 16 14 14 17 22 22 16 12 10 12 16 19 23 25 24 23 23 20 18 19 18 14 19 17 8 11 31 46 45 42 42 42 44 44 44 46 47 49 48 46 47 47 47
7 8 8 8 8 8 8 9 9 10 10 11 12 13 14 14 14 13 13 13 13 13 13 14 14 14 15 15 15 15 14 13 12 12 12 12 13 13 13 13 14 16 17 16 17 17 16 17 18 14 9 8 10 13 18 24 26 27 29 26 25 26 23 20 17 14 14 18 17 15 22 42 50 44 40 40 42 46 48 46 47 48 49 48 47 47 47 47
8 8 8 8 7 8 8 9 9 10 10 11 13 13 12 12 13 13 13 13 13 13 14 14 15 15 15 15 15 15 15 15 14 13 13 13 13 13 13 14 16 17 17 17 18 17 18 20 19 16 16 17 19 22 25 28 30 31 29 27 26 26 26 24 19 20 21 19 23 29 37 46 51 46 41 42 46 48 50 49 49 49 49 48 47 47 48 48
8 8 7 7 7 7 7 8 9 10 11 12 13 13 12 12 12 12 13 12 12 13 13 14 15 15 15 15 16 15 15 15 15 15 15 14 14 14 14 16 17 17 18 18 17 17 20 22 20 20 23 24 25 27 27 28 30 30 29 29 28 26 28 29 26 27 27 19 25 40 42 42 51 49 41 44 51 51 52 52 51 51 50 49 48 49 49 48
8 8 8 8 7 7 8 9 10 11 11 12 13 13 13 12 12 12 12 12 12 12 13 14 13 13 14 14 15 15 15 14 15 16 15 15 15 15 16 18 18 18 18 18 18 19 21 23 24 24 25 26 26 27 27 27 28 30 32 33 31 28 29 32 30 31 32 28 32 44 43 44 52 48 39 45 52 52 54 54 52 52 51 49 49 50 50 49
8 8 8 8 8 8 9 9 10 11 11 12 13 13 12 11 11 11 12 12 12 13 13 13 12 12 14 14 15 15 15 15 15 15 15 16 16 17 18 19 18 19 20 20 21 21 21 23 26 26 28 30 28 26 26 27 29 34 35 31 26 24 25 28 30 30 32 36 41 44 43 46 46 42 42 49 51 51 55 54 53 53 51 50 50 51 51 50
7 7 8 8 8 8 9 10 10 11 12 12 13 12 12 11 11 11 12 12 13 13 13 13 12 13 14 14 15 15 15 16 17 17 17 17 17 18 19 20 20 21 23 23 24 22 21 24 26 27 31 33 29 26 26 27 33 37 30 19 16 18 20 24 27 27 30 37 40 40 43 46 45 43 46 50 50 52 56 56 56 55 52 51 52 52 52 51
7 7 8 8 8 9 9 10 11 11 12 12 12 12 12 11 11 12 12 12 12 12 12 13 13 13 14 15 15 15 15 16 17 17 18 18 19 19 20 21 22 23 25 25 25 23 23 25 27 27 30 33 32 28 27 32 37 33 22 18 20 21 22 23 25 27 31 36 39 39 41 45 49 49 50 50 50 52 55 57 58 57 54 52 53 54 53 52
6 7 8 8 8 9 9 10 11 12 12 11 12 12 12 11 11 11 12 12 12 12 12 13 13 13 14 14 15 15 16 16 17 17 18 19 20 21 21 22 23 24 26 25 25 25 23 24 27 24 25 33 32 28 32 36 28 19 19 26 27 22 19 22 27 31 34 35 37 38 39 46 51 51 51 52 51 51 54 58 59 57 54 53 54 55 54 53
Wind_Direction
143 131 93 51 55 69 69 77 88 94 105 113 120 124 125 125 123 121 116 110 107 108 107 105 101 100 102 108 118 117 101 84 76 82 98 95 81 74 70 67 66 64 58 54 52 48 44 39 39 46 44 38 46 59 65 71 63 59 67 47 27 37 27 5 1 8 10 4 359 355 349 348 350 352 353 357 3 2 358 355 351 348 350 351 348 342 337 333
145 134 121 87 49 72 66 70 76 89 110 118 124 126 128 128 124 120 113 107 103 104 106 104 102 101 101 103 102 99 93 85 83 107 103 74 67 65 63 61 60 59 51 43 37 33 29 24 26 28 27 18 20 36 37 51 44 26 30 23 18 21 17 13 4 4 6 359 3 3 351 347 350 355 358 360 2 359 356 354 351 349 349 350 349 347 343 339
152 150 172 189 219 206 86 64 69 97 120 122 124 124 125 125 120 114 110 111 109 107 108 107 108 107 103 98 93 91 90 90 96 94 75 64 62 61 59 55 51 52 49 41 31 28 24 19 18 16 15 8 4 11 10 9 7 6 7 9 19 17 15 22 12 0 357 354 3 4 353 351 355 358 358 358 358 357 356 354 350 347 345 346 346 346 344 341
173 175 175 188 210 173 121 154 145 122 124 124 124 122 121 119 114 109 108 115 117 113 111 112 111 107 103 97 91 87 85 90 88 73 67 63 61 59 57 51 47 49 47 42 31 23 19 16 12 9 7 0 2 3 350 346 357 8 359 1 18 22 21 15 1 354 352 356 360 358 354 355 357 358 356 355 355 356 357 354 350 346 343 343 342 342 341 339
192 202 172 184 195 140 145 167 143 127 128 127 124 120 118 115 111 108 106 112 120 119 115 114 111 102 99 97 93 91 87 85 75 66 64 61 56 54 52 46 43 44 41 37 28 18 14 12 7 4 360 357 2 359 346 347 356 358 352 1 19 31 27 355 350 352 350 353 352 353 356 355 353 352 353 353 355 357 356 354 352 349 345 343 341 339 338 336
195 198 166 167 161 138 151 147 130 129 130 126 123 117 114 113 110 109 107 107 112 114 113 112 103 97 102 99 88 85 86 81 71 65 60 54 50 48 47 40 33 37 35 28 22 18 13 8 3 358 357 357 356 355 356 357 355 350 349 360 16 30 23 351 350 349 347 346 343 347 352 351 348 347 351 353 356 358 356 355 355 353 349 345 341 338 335 333
187 181 152 139 138 140 142 133 128 129 129 129 123 114 112 112 109 109 109 107 105 105 107 105 100 101 105 96 81 71 76 78 71 63 55 49 45 41 41 32 23 28 29 22 17 16 11 6 1 357 1 357 351 358 2 358 353 348 352 2 9 15 8 356 350 340 339 337 331 338 347 346 342 345 351 354 358 359 356 357 357 353 349 345 340 337 334 333
178 165 138 114 123 136 134 128 126 128 131 131 123 116 113 111 108 106 107 108 106 104 104 105 106 103 95 88 80 67 65 70 65 57 50 46 40 34 34 27 19 24 23 17 14 15 12 6 360 2 6 356 353 2 359 356 353 350 359 6 3 360 356 355 346 332 328 327 325 333 345 342 334 344 351 355 358 358 357 357 355 350 346 343 339 337 336 334
167 157 120 98 123 135 130 127 127 129 132 129 123 120 116 114 111 104 105 106 105 105 106 108 102 93 85 85 84 71 63 64 58 50 45 43 37 31 29 21 18 25 19 13 13 14 10 5 3 10 8 1 2 0 355 358 358 359 6 6 1 354 349 345 336 327 322 322 323 328 338 338 331 345 351 355 358 357 358 355 350 346 343 341 339 337 337 336
159 147 106 102 128 134 130 130 130 130 130 125 122 122 118 119 115 109 108 107 108 112 112 110 105 99 87 74 71 64 64 64 54 45 42 42 36 30 25 15 17 22 15 14 11 8 8 6 12 14 10 9 9 358 2 10 9 10 10 4 360 350 341 332 325 323 318 317 319 321 331 336 334 346 351 354 358 356 355 352 346 343 340 339 338 337 337 337
155 127 100 110 131 136 135 134 132 133 130 122 120 118 120 121 118 115 114 114 116 116 115 113 109 98 77 56 45 61 65 61 52 43 40 42 37 28 22 15 18 18 14 15 7 8 10 6 16 17 11 14 10 356 9 15 14 12 6 2 357 344 332 319 316 316 310 313 316 320 331 335 333 344 352 354 357 355 352 348 343 340 340 339 338 337 337 337
150 104 98 120 138 139 139 137 134 133 127 118 114 111 115 119 119 119 116 118 119 117 119 113 93 83 78 68 60 70 64 58 51 43 40 41 37 28 23 19 18 15 13 11 4 10 11 8 20 17 9 14 13 9 15 15 15 9 360 2 355 342 325 306 309 309 305 313 317 323 330 330 326 340 350 352 354 353 350 347 342 340 340 339 337 336 335 335
136 91 106 129 138 140 138 137 133 131 123 114 110 107 111 114 117 118 116 118 119 119 118 105 88 80 85 88 76 67 62 56 51 46 39 35 34 29 25 22 18 15 15 5 1 10 10 11 23 14 6 13 15 20 21 17 16 7 356 349 342 340 320 307 314 313 308 314 319 323 325 328 329 337 347 348 351 352 350 346 341 340 339 338 336 334 334 333
138 84 117 134 132 136 135 135 133 129 123 115 112 112 114 115 118 118 117 120 121 122 116 104 94 84 82 80 74 70 62 53 47 43 35 27 27 28 27 23 17 15 11 358 2 9 4 15 24 8 4 15 16 18 22 20 18 8 357 337 334 345 336 320 318 313 310 313 321 321 317 325 331 331 339 342 347 350 348 345 341 339 338 336 335 333 333 332
159 84 122 136 128 135 138 139 136 130 125 120 118 118 118 119 120 118 119 123 122 119 111 102 96 87 86 82 76 71 62 52 44 38 28 20 22 26 25 22 17 12 5 357 4 5 2 17 17 355 4 18 17 13 15 16 13 5 2 354 345 349 351 337 319 312 313 313 319 317 309 318 325 324 332 335 342 346 345 344 340 338 337 334 334 333 331 330
167 136 133 133 131 141 146 145 138 130 128 126 125 124 124 125 123 120 121 123 119 112 104 98 94 94 99 87 75 67 60 52 44 36 25 17 20 25 23 19 13 8 5 360 5 8 8 16 0 350 8 18 18 15 12 10 8 5 2 360 355 349 346 345 324 311 313 314 317 311 303 311 319 320 326 330 337 342 341 341 338 336 335 333 333 332 330 330
161 167 144 132 132 139 143 141 135 131 130 130 130 129 131 131 126 124 124 121 116 109 106 105 103 105 101 84 75 68 60 53 45 35 26 18 18 22 20 14 7 3 4 358 4 6 358 5 358 355 6 11 14 15 19 12 5 4 2 357 355 351 344 343 333 312 310 316 318 310 301 306 314 317 322 327 332 338 339 338 336 334 333 333 332 330 329 330
155 159 146 133 128 126 125 125 129 133 132 130 133 133 135 134 129 127 125 121 117 113 113 116 115 107 95 83 76 69 59 49 42 33 25 19 19 21 16 10 3 360 359 356 0 355 346 356 353 340 351 0 6 10 18 16 2 360 359 354 350 349 347 339 328 311 312 319 321 314 304 305 310 314 320 326 331 336 337 335 334 334 332 331 329 328 328 329
158 155 148 137 129 123 115 116 128 136 134 132 135 137 138 137 132 131 129 125 121 120 123 125 124 109 96 88 76 66 55 45 38 30 24 19 17 17 15 10 1 358 356 353 349 346 351 352 334 332 350 0 4 6 14 13 3 357 354 353 346 341 344 337 319 310 319 322 324 318 309 311 313 316 322 327 332 335 336 335 334 334 331 328 327 326 327 329
158 155 151 145 140 130 118 121 130 135 134 134 137 141 143 139 135 140 142 134 125 125 124 121 117 104 94 85 71 61 53 42 33 26 21 18 14 12 14 9 360 360 357 348 341 349 356 342 338 354 1 2 3 4 10 8 3 359 353 353 347 337 339 337 310 310 323 320 326 322 309 316 319 319 325 327 332 336 336 336 335 333 329 326 325 325 326 329
156 156 154 150 146 135 127 129 131 131 132 133 140 147 148 143 139 143 142 134 130 130 128 122 117 105 91 78 64 56 50 41 30 22 15 13 13 10 11 7 360 359 356 349 348 353 348 338 355 7 2 359 360 1 7 6 0 359 355 351 347 338 338 339 310 311 322 314 322 319 307 319 323 321 331 329 332 338 336 336 335 332 327 325 325 324 326 329
155 157 154 148 143 135 130 129 129 130 129 133 143 148 148 147 143 136 136 140 140 139 135 124 113 100 87 74 58 44 44 38 26 16 11 12 12 7 7 6 359 356 357 356 354 351 345 351 6 4 356 359 358 358 2 3 357 356 359 353 347 341 338 341 324 315 317 311 318 315 311 323 328 329 339 333 333 339 336 337 336 330 326 325 325 325 326 329
155 154 150 143 139 136 132 129 130 130 130 137 142 141 144 148 146 139 140 154 150 143 138 123 106 92 80 69 49 31 35 32 18 8 9 11 10 6 6 4 358 356 360 0 356 352 352 357 360 355 357 359 356 355 353 355 355 353 357 354 348 344 336 331 323 317 317 314 312 311 316 326 338 343 344 333 332 338 338 338 337 332 329 327 327 327 327 328
155 152 147 144 143 142 139 136 136 132 133 143 143 140 143 145 148 146 146 157 153 144 136 116 102 89 77 63 40 26 28 22 6 2 5 8 10 6 5 5 358 355 360 2 360 359 359 352 344 350 358 357 355 352 344 347 354 353 354 352 347 342 332 322 318 316 323 321 308 315 322 328 342 344 344 333 331 338 339 339 339 335 332 330 329 329 328 329
156 151 149 149 150 149 143 140 141 139 143 148 145 143 143 144 151 154 151 161 158 150 149 134 108 76 68 69 39 25 20 9 360 358 359 4 9 5 5 5 357 355 359 2 4 2 360 349 336 341 350 355 354 349 344 345 351 353 351 347 343 339 330 321 313 312 323 326 318 326 331 324 328 338 342 329 331 338 339 340 342 340 335 333 332 330 330 331
157 151 151 155 156 153 145 145 145 149 154 151 148 146 143 148 160 168 181 209 196 175 182 198 193 217 31 110 41 17 2 1 358 352 355 2 5 2 4 2 357 358 360 3 5 1 358 348 335 333 343 351 351 348 347 345 347 351 348 344 342 337 329 318 312 314 319 322 323 325 318 297 318 335 341 326 330 338 339 342 343 342 339 336 335 333 332 334
158 152 153 156 155 152 150 152 153 158 161 156 154 149 145 151 162 194 232 258 227 213 213 219 222 231 213 173 9 1 356 352 352 350 355 360 359 0 2 358 355 358 0 4 3 358 357 350 339 333 338 343 345 348 349 344 344 346 344 343 341 336 329 315 312 315 308 313 321 315 294 283 304 328 336 323 331 338 338 342 342 342 342 339 338 336 336 337
159 153 151 152 151 151 154 162 166 169 171 167 162 155 156 173 277 255 257 318 238 227 229 240 242 232 208 202 289 343 350 341 346 348 351 355 356 358 358 353 354 356 1 5 2 359 357 352 346 338 337 339 340 346 348 343 340 340 342 346 342 335 329 312 308 315 306 308 318 307 304 285 291 316 332 325 331 338 339 341 341 342 343 341 340 339 339 340
162 154 150 152 155 156 161 173 178 181 185 182 178 177 196 277 300 277 258 266 241 232 232 234 227 220 215 226 273 317 332 330 340 344 344 349 352 354 353 351 354 355 359 3 2 1 357 354 350 339 337 340 340 343 345 342 336 336 340 345 343 335 326 308 299 320 308 291 301 296 301 307 299 312 334 333 330 335 337 340 341 342 343 342 341 341 340 340
166 158 153 157 163 165 169 182 189 191 195 197 200 211 245 277 278 254 241 256 248 238 227 214 210 219 225 239 266 288 308 319 331 336 336 342 347 351 351 349 353 357 359 0 360 359 357 356 353 345 342 344 342 341 343 341 335 337 339 342 346 343 327 298 277 322 317 268 296 285 287 315 306 314 331 332 330 332 334 339 342 342 343 343 342 342 341 340
172 166 161 164 171 177 180 190 197 198 205 210 217 233 254 265 250 214 222 257 258 245 231 225 233 246 245 246 256 271 295 309 319 326 331 338 344 348 347 346 355 359 358 358 358 356 356 357 355 351 346 345 344 342 342 340 337 339 338 342 350 352 330 279 257 325 329 271 304 282 296 299 263 304 328 330 330 332 334 338 341 341 344 343 343 343 341 341
180 180 178 180 185 193 196 198 204 205 210 216 226 242 249 250 242 234 240 259 262 243 233 232 238 245 248 248 252 266 286 297 307 316 325 333 336 338 341 348 359 3 356 354 355 354 354 355 354 351 346 346 344 341 343 341 340 337 336 348 357 356 342 316 257 307 242 272 297 294 308 295 268 305 330 334 332 334 335 338 340 341 343 342 343 343 342 342
190 193 195 200 207 217 218 213 213 210 211 218 227 237 236 229 238 244 244 245 250 260 253 240 240 243 248 252 252 260 275 286 296 305 315 323 325 333 343 351 358 3 355 351 351 351 353 354 352 347 344 347 344 341 342 340 339 337 342 358 9 16 360 342 294 306 274 287 296 297 302 293 294 319 334 337 339 339 337 339 340 341 342 341 342 343 342 341
198 204 207 214 227 240 236 225 218 212 208 213 219 226 226 223 241 255 250 248 256 270 268 253 248 249 249 251 251 257 271 280 287 298 309 318 323 332 343 350 354 357 355 352 349 348 347 346 346 342 339 347 346 342 342 340 340 339 344 356 7 13 5 271 287 297 290 302 304 298 288 286 309 325 336 341 344 343 340 341 341 342 341 340 342 342 341 339
203 211 214 223 239 248 241 226 218 213 208 212 220 226 229 235 252 259 257 258 263 269 266 256 255 254 251 255 257 259 267 274 285 297 305 313 318 326 340 348 350 352 353 351 349 345 338 335 340 338 335 343 346 342 341 342 340 335 338 345 351 347 305 254 276 276 283 303 307 295 283 304 317 328 340 346 347 345 344 343 342 342 340 340 341 341 339 337
208 215 220 232 246 246 239 228 218 215 215 223 232 237 242 248 256 259 262 266 270 274 267 256 256 256 255 259 258 258 263 270 281 292 299 307 310 320 337 344 346 349 348 347 348 343 333 333 338 336 333 339 344 341 339 341 337 329 330 334 337 334 316 292 285 277 283 296 296 287 296 315 326 338 345 347 347 346 345 343 342 341 339 339 340 340 337 335
212 221 229 240 247 242 238 230 221 221 228 236 241 246 253 256 259 263 267 271 274 274 264 255 255 252 253 258 256 258 264 269 279 287 297 303 301 314 333 339 342 345 344 343 344 338 331 332 336 337 333 335 339 338 335 335 332 322 319 325 331 330 325 324 311 302 331 282 278 284 297 312 320 331 343 345 346 346 345 342 342 340 337 337 338 338 336 333
217 232 241 244 242 237 233 227 225 234 240 244 248 255 261 262 264 266 267 270 271 267 261 256 254 252 253 258 262 265 265 269 280 288 297 301 300 316 329 332 337 339 339 339 338 334 332 330 332 337 334 334 336 333 331 330 327 320 315 319 327 323 304 319 327 316 331 304 285 297 303 310 312 321 338 344 344 345 344 342 340 338 335 336 336 336 335 332
230 241 244 241 235 231 229 231 241 249 250 253 258 263 266 266 267 267 269 271 268 264 262 256 253 254 255 261 267 268 267 272 281 286 293 296 301 316 322 324 331 333 334 335 331 330 331 323 322 331 332 331 331 328 325 323 322 318 315 313 317 311 289 299 297 259 269 257 292 312 311 314 325 330 334 342 344 343 343 340 338 336 335 335 334 334 333 331
240 242 239 236 233 231 236 246 255 260 259 262 264 265 269 271 271 272 273 273 269 263 261 257 255 254 257 263 267 268 271 276 281 283 285 289 300 314 315 315 324 326 327 330 326 326 326 313 310 323 329 329 327 323 318 316 315 312 314 312 309 305 296 300 290 263 251 224 258 8 295 307 332 344 335 340 343 341 340 338 336 336 335 334 333 333 333 331
237 236 233 233 234 238 248 255 261 264 265 268 270 270 273 274 275 276 275 273 268 262 261 260 257 255 259 265 266 268 272 275 282 284 281 284 295 305 308 311 317 318 321 324 323 323 321 310 307 316 325 326 323 319 311 309 310 311 315 312 305 303 297 299 292 267 246 230 248 144 270 306 337 351 336 340 342 338 338 336 335 336 335 335 334 333 332 330
230 231 232 238 244 250 256 258 262 267 270 273 275 275 276 276 277 277 274 272 268 265 264 262 260 260 263 266 267 268 270 274 280 281 278 281 287 294 302 308 311 312 316 318 318 320 318 309 307 316 325 327 323 321 317 315 317 317 318 314 309 302 289 278 261 272 266 248 256 220 244 308 340 346 334 340 341 336 337 334 334 336 335 336 335 334 333 330
230 235 239 247 256 259 260 262 266 270 274 278 279 279 279 278 278 277 275 272 269 268 266 264 265 265 264 266 267 267 269 273 276 277 276 277 283 292 299 304 307 308 312 315 315 318 318 311 310 318 324 325 322 322 321 321 319 316 316 313 307 300 294 286 271 274 275 258 256 201 220 305 335 340 334 340 339 335 337 334 333 335 335 337 336 333 333 332
240 246 250 256 262 263 263 266 272 274 278 282 282 282 282 281 280 278 276 273 270 269 267 265 266 266 265 267 268 268 269 270 274 276 277 279 285 292 296 302 307 307 309 312 311 313 313 307 309 319 326 330 330 329 324 320 317 313 312 311 308 304 297 289 278 271 268 265 258 195 232 301 328 336 334 339 338 335 338 334 333 335 336 337 335 333 333 334
250 255 259 261 262 263 266 271 275 278 283 286 285 286 286 284 282 279 277 274 271 269 268 268 268 267 268 269 269 270 267 266 271 275 279 284 288 292 296 300 305 307 308 308 307 306 301 299 303 307 305 304 308 313 317 317 314 311 310 310 310 306 296 289 280 258 257 268 253 227 266 304 325 336 336 339 338 337 338 335 334 335 336 337 335 332 334 335
258 260 260 261 263 265 269 274 277 281 287 291 293 295 292 288 284 281 279 276 274 273 271 270 270 270 270 271 272 271 268 268 270 273 280 287 288 292 296 298 302 306 306 305 305 302 295 295 300 294 284 286 296 305 312 313 308 306 307 307 306 304 296 287 269 255 268 272 263 275 292 304 320 334 339 338 338 337 335 335 335 335 336 336 334 333 335 336
262 261 259 261 267 270 271 275 280 285 292 295 298 301 299 294 288 283 282 279 277 277 275 273 274 273 274 274 273 271 270 269 270 275 281 285 287 291 295 299 303 304 306 306 304 300 295 296 298 295 295 299 304 309 313 310 305 305 307 305 304 303 295 282 271 275 284 271 275 301 308 301 312 331 339 334 335 335 333 334 334 335 337 337 334 333 335 337
261 262 263 265 269 273 276 280 284 288 293 297 299 301 301 296 290 285 283 281 280 278 276 279 282 281 278 275 273 272 272 273 275 278 282 283 287 293 297 301 303 304 307 306 303 301 297 297 300 299 302 306 307 311 313 308 305 308 310 310 309 305 294 284 284 289 286 272 284 308 310 301 314 332 336 331 333 332 330 333 333 334 337 336 333 333 334 336
261 262 266 269 271 275 279 284 287 291 295 298 299 301 300 294 288 284 282 282 283 282 281 285 286 281 277 273 272 273 275 277 278 279 283 286 289 295 299 302 304 307 309 306 303 303 297 297 302 301 304 309 311 313 314 311 311 314 317 317 311 301 290 286 292 295 286 284 297 310 307 306 322 337 333 329 332 330 329 331 332 334 338 336 333 332 333 334
263 265 268 270 274 279 282 286 290 294 297 300 301 301 299 295 288 284 284 285 287 288 288 289 285 281 279 277 276 278 278 277 277 279 283 286 290 295 298 302 305 307 307 305 303 302 296 296 301 302 304 310 315 317 316 314 315 315 318 321 310 301 298 295 297 300 294 296 309 312 304 310 329 337 330 330 332 330 330 331 332 335 338 335 332 331 332 332
266 269 272 274 278 281 285 289 293 298 301 302 302 302 300 297 290 287 288 288 290 293 293 291 289 286 283 282 282 282 279 277 278 280 283 285 290 294 297 300 303 303 303 302 301 300 298 295 299 302 301 305 314 318 316 316 314 310 315 330 325 316 311 304 305 309 308 309 313 308 303 316 332 336 331 332 334 332 331 332 333 337 338 333 331 330 331 330
268 274 277 279 284 286 289 294 297 301 304 305 305 305 302 299 294 291 292 293 295 298 297 295 294 289 287 287 285 283 280 280 281 282 283 287 290 294 296 298 300 300 300 300 298 299 298 294 298 300 296 301 311 315 315 318 316 311 325 332 327 320 311 309 315 319 319 318 313 308 314 327 334 334 332 333 334 332 331 331 333 337 337 333 331 331 330 329